Weather in Rodniki

Russia / Stavropol Krai     45°37′26″N   42°34′59″E
temp.,
°C
wind,
m/s
gust,
m/s
humid.,
%
clouds,
%
prec.,
mm/h
press.,
hPa
HPBL,
m
7 may, fri
fri700:00+11se61360100 0.0 1014353
03:00+10sse41062100 0.0 1014216
06:00+10sse377196 0.0 1015135
09:00+17w577422 0.1 1016691
12:00+19w68482 0.0 10161359
15:00+20wnw57460 0.0 10161482
18:00+18w356339 0.0 1017202
21:00+13sw337675 0.0 101929
8 may, sat
sat800:00+12wsw22815 0.0 101811
03:00+11sse228324 0.0 101710
06:00+12se358134 0.0 101791
09:00+19se46595 0.0 1016671
12:00+22se5649100 0.0 10141371
15:00+23se5648100 0.0 10131611
18:00+20se3665100 0.0 1012154
21:00+17sse476896 0.0 1012109
9 may, sun
sun900:00+14se5127153 0.0 1010205
03:00+12se47716 0.0 1010111
06:00+12sse2675100 0.0 1008159
09:00+15wnw6108998 0.3 1008474
12:00+18nnw666812 0.0 1009885
15:00+12wsw101490100 0.6 1012775
18:00+7w91494100 3.9 1016740
21:00+6w91392100 7.3 1019954
10 may, mon
mon1000:00+7w91391100 0.3 10191044
03:00+5w91491100 0.4 10191281
06:00+6w101591100 0.5 10201115
09:00+9w9137952 0.7 10201232
12:00+10w10136592 0.2 10181486
15:00+11w81267100 0.3 10181502
18:00+9w712765 0.1 10191209
21:00+4wsw111796100 5.3 1016869
11 may, tue
tue1100:00+5ssw488898 0.0 1021340
03:00+4sw35906 0.0 1021100
06:00+5se238510 0.0 102189
09:00+11se796999 0.0 10221218
12:00+12se7862100 0.1 10211501
15:00+13ese676299 0.1 10211514
18:00+12ese4868100 0.1 1020372
21:00+9ese487787 0.1 1020134